Change the Weather History Date:

Sunday, August 18, 2013

  Actual Average Record
Temperature  
Mean Temperature 66 °F -  
Max Temperature 79 °F 84 °F 97 °F (1972)
Min Temperature 55 °F 62 °F 50 °F (1962)
Cooling Degree Days 2    
Growing Degree Days 16 (Base 50)    
Moisture  
Dew Point 58 °F    
Average Humidity 79    
Maximum Humidity 94    
Minimum Humidity 44    
Precipitation  
Precipitation 0.00 in - - ()
Sea Level Pressure  
Sea Level Pressure 30.17 in    
Wind  
Wind Speed 2 mph (NE)    
Max Wind Speed 12 mph    
Max Gust Speed -    
Visibility 8 miles    
Events Fog    
Averages and records for this station are not official NWS values.
T = Trace of Precipitation, MM = Missing Value Source: NWS Daily Summary

Daily Weather History Graph

Daily Weather History Graph

Search for Another Location

Airport or City:

Trip Planner

Search our weather history database for the weather conditions in past years. The results will help you decide how hot, cold, wet, or windy it might be!

Date:

Astronomy

Aug. 18, 2013 Rise Set
Actual Time 6:01 AM CDT 7:44 PM CDT
Civil Twilight 5:32 AM CDT 8:13 PM CDT
Nautical Twilight 4:56 AM CDT 8:49 PM CDT
Astronomical Twilight 4:17 AM CDT 9:28 PM CDT
Moon 5:51 PM CDT (8/18) 3:09 AM CDT (8/18)
Length of Visible Light 14h 41m
Length of Day
13h 42m
Waxing Gibbous, 92% of the Moon is Illuminated
Aug 18
Waxing Gibbous
Aug 20
Full
Aug 28
Last Quarter
Sep 5
New
Sep 12
First Quarter

Hourly Weather History & Observations

Time (CDT) Temp. Dew Point Humidity Pressure Visibility Wind Dir Wind Speed Gust Speed Precip Events Conditions
12:15 AM 67.6 °F 62.6 °F 84% 30.19 in 10.0 mi NE 3.5 mph - N/A   Clear
12:35 AM 67.3 °F 62.6 °F 85% 30.18 in 10.0 mi NE 4.6 mph - N/A   Clear
12:55 AM 67.1 °F 62.2 °F 84% 30.18 in 10.0 mi NE 3.5 mph - N/A   Clear
1:15 AM 63.1 °F 59.7 °F 89% 30.18 in 10.0 mi Calm Calm - N/A   Clear
1:35 AM 61.9 °F 59.2 °F 91% 30.18 in 5.0 mi Calm Calm - N/A   Clear
1:55 AM 60.1 °F 57.7 °F 92% 30.19 in 1.0 mi Calm Calm - N/A   Mist
2:15 AM 59.7 °F 57.6 °F 93% 30.19 in 1.2 mi Calm Calm - N/A   Mist
2:35 AM 58.6 °F 56.5 °F 93% 30.18 in 0.2 mi Calm Calm - N/A Fog Fog
2:55 AM 58.6 °F 56.7 °F 93% 30.18 in 1.2 mi Calm Calm - N/A   Mist
3:15 AM 57.4 °F 55.4 °F 93% 30.18 in 2.0 mi Calm Calm - N/A   Clear
3:35 AM 57.7 °F 55.6 °F 92% 30.17 in 2.0 mi Calm Calm - N/A   Clear
3:55 AM 58.1 °F 55.9 °F 93% 30.17 in 5.0 mi Calm Calm - N/A   Clear
4:15 AM 57.2 °F 55.2 °F 93% 30.17 in 0.5 mi Calm Calm - N/A Fog Fog
4:35 AM 56.5 °F 54.5 °F 93% 30.18 in 0.2 mi Calm Calm - N/A Fog Fog
4:45 AM 55.4 °F 53.6 °F 94% 30.18 in 10.0 mi Calm Calm - N/A   Clear
5:45 AM 55.4 °F 53.6 °F 94% 30.19 in 10.0 mi Calm Calm - N/A   Partly Cloudy
6:45 AM 55.4 °F 53.6 °F 94% 30.21 in 10.0 mi Calm Calm - N/A   Partly Cloudy
7:45 AM 64.4 °F 59.0 °F 83% 30.21 in 10.0 mi Calm Calm - N/A   Clear
8:45 AM 69.8 °F 60.8 °F 73% 30.22 in 10.0 mi Calm Calm - N/A   Clear
9:45 AM 73.4 °F 62.6 °F 69% 30.22 in 7.0 mi North 5.8 mph - N/A   Clear
10:45 AM 75.2 °F 60.8 °F 61% 30.22 in 7.0 mi NNE 6.9 mph - N/A   Partly Cloudy
11:45 AM 75.2 °F 59.0 °F 57% 30.20 in 7.0 mi NNE 5.8 mph - N/A   Scattered Clouds
12:45 PM 77.0 °F 57.2 °F 50% 30.19 in 10.0 mi NNE 10.4 mph - N/A   Scattered Clouds
1:45 PM 78.8 °F 59.0 °F 51% 30.17 in 10.0 mi NNE 9.2 mph - N/A   Scattered Clouds
2:45 PM 78.8 °F 57.2 °F 47% 30.16 in 10.0 mi NNE 10.4 mph - N/A   Scattered Clouds
3:45 PM 77.0 °F 53.6 °F 44% 30.15 in 10.0 mi NE 11.5 mph - N/A   Partly Cloudy
4:45 PM 77.0 °F 55.4 °F 47% 30.13 in 10.0 mi NE 9.2 mph - N/A   Partly Cloudy
6:45 PM 75.2 °F 55.4 °F 50% 30.13 in 10.0 mi NE 6.9 mph - N/A   Partly Cloudy
7:45 PM 71.6 °F 59.0 °F 64% 30.12 in 10.0 mi ENE 6.9 mph - N/A   Partly Cloudy
8:45 PM 69.8 °F 60.8 °F 73% 30.13 in 10.0 mi East 5.8 mph - N/A   Partly Cloudy
9:15 PM 69.8 °F 60.3 °F 72% 30.14 in 10.0 mi East 3.5 mph - N/A   Clear
9:35 PM 66.4 °F 60.1 °F 80% 30.14 in 10.0 mi Calm Calm - N/A   Clear
9:45 PM 64.4 °F 60.8 °F 88% 30.14 in 10.0 mi Calm Calm - N/A   Scattered Clouds
9:55 PM 64.4 °F 60.1 °F 86% 30.14 in 10.0 mi Calm Calm - N/A   Clear
10:15 PM 62.8 °F 59.2 °F 88% 30.13 in 10.0 mi Calm Calm - N/A   Clear
10:35 PM 62.6 °F 59.2 °F 89% 30.14 in 10.0 mi Calm Calm - N/A   Clear
10:55 PM 62.1 °F 58.5 °F 88% 30.14 in 10.0 mi Calm Calm - N/A   Clear
11:15 PM 62.1 °F 58.8 °F 89% 30.13 in 10.0 mi Calm Calm - N/A   Clear
11:35 PM 61.2 °F 57.7 °F 88% 30.13 in 10.0 mi Calm Calm - N/A   Clear
11:55 PM 61.0 °F 58.3 °F 91% 30.13 in 10.0 mi Calm Calm - N/A   Clear